Regional Weather Roundup
Issued by NWS

Home | Current Version | Previous Version | Graphics & Text | Print | Product List | Glossary On
Versions: 1 2 3 4 5 6 7 8 9 10 11 12 13 14 15 16 17 18 19 20 21 22 23 24 25 26 27 28 29 30 31 32 33 34 35 36 37 38 39 40 41 42 43 44 45 46 47 48 49 50
000
ASUS43 KLSX 231659
RWRMO

WEATHER SUMMARY FOR MISSOURI
NATIONAL WEATHER SERVICE SPRINGFIELD MO
1200 PM CDT FRI JUN 23 2017

NOTE: "FAIR" INDICATES FEW OR NO CLOUDS BELOW 12,000 FEET WITH NO
       SIGNIFICANT WEATHER AND/OR OBSTRUCTIONS TO VISIBILITY.
       CURRENT SKY AND/OR WEATHER CONDITIONS ARE NOT AVAILABLE FOR
       CHILLICOTHE AND FARMINGTON.

MOZ001>031-035>038-043-044-053-054-231800-
...NORTHERN AND WESTERN MISSOURI...

CITY           SKY/WX    TMP DP  RH WIND       PRES   REMARKS
KANSAS CTY INT PTSUNNY   78  56  46 N13       29.90S
KANSAS C DTWN  SUNNY     82  57  42 N9        29.89R
LEE`S SUMMIT   MOSUNNY   81  58  45 N17       29.90R
ST JOSEPH      CLOUDY    79  58  48 NW16      29.94R
CHILLICOTHE      N/A     81  64  56 VRB6      29.89R
KIRKSVILLE     SUNNY     80  61  52 NW13      29.86R

$$
MOZ066>068-077>081-088>096-101>105-231800-
...SOUTHWEST MISSOURI...

CITY           SKY/WX    TMP DP  RH WIND       PRES   REMARKS
SPRINGFIELD    CLOUDY    80  74  81 W6        29.78S
JOPLIN         TSTM      72  71  97 N13G26    29.86R VSB 1
BRANSON        PTSUNNY   84  73  70 CALM      29.81F HX  91

$$
MOZ032>034-039>042-045>050-055>058-069>072-231800-
...CENTRAL MISSOURI...

CITY           SKY/WX    TMP DP  RH WIND       PRES   REMARKS
COLUMBIA       CLOUDY    80  58  46 N26G35    29.83R
JEFFERSON CITY MOSUNNY   80  67  64 N14       29.79R
ROLLA          CLOUDY    80  70  71 N9        29.77F
SEDALIA        CLOUDY    81  65  58 N17       29.85S
WARRENSBURG    SUNNY     79  59  50 N12G21    29.86S
OSAGE BEACH    CLOUDY    77  71  82 NW13G18   29.82R

$$
MOZ051-052-059>065-231800-
...EAST CENTRAL MISSOURI...

CITY           SKY/WX    TMP DP  RH WIND       PRES   REMARKS
ST LOUIS INTL  MOSUNNY   85  71  63 NW16      29.73S HX  90
SPIRIT OF STL  CLOUDY    84  72  67 N14G21    29.72S
ST CHARLES     CLOUDY    83  72  69 NW13      29.72R

$$
MOZ072>076-082>087-097>100-106>115-231800-
...SOUTH CENTRAL AND SOUTHEAST MISSOURI...

CITY           SKY/WX    TMP DP  RH WIND       PRES   REMARKS
CAPE GIRARDEAU CLOUDY    77  73  87 VRB3      29.67F
FARMINGTON     PTSUNNY   83  71  67 NW12G18   29.73R
POPLAR BLUFF   CLOUDY    81  75  82 CALM      29.68S
WEST PLAINS    CLOUDY    88  71  57 N8        29.78R HX  94

$$




USA.gov is the U.S. government's official web portal to all federal, state and local government web resources and services.